This is the latest recevied weather packets stored in our database for station/object WX8ASH-13. If no packets are shown the sender has not sent any weather packets the latest 10 day(s).
| Time | Temp. | Humidity | Pressure | Rain* | Wind** | Luminosity | Snow |
|---|---|---|---|---|---|---|---|
| 1778087723 | 12.22° C | 68% | 1019.2 hPa | 0 mm | - | - | - |
| 1778087424 | 12.78° C | 65% | 1019.2 hPa | 0 mm | - | - | - |
| 1778087123 | 12.22° C | 68% | 1019.2 hPa | 0 mm | - | - | - |
| 1778086823 | 12.22° C | 65% | 1019.3 hPa | 0 mm | - | - | - |
| 1778086524 | 12.22° C | 66% | 1019.2 hPa | 0 mm | - | - | - |
| 1778086224 | 12.22° C | 68% | 1019.2 hPa | 0 mm | - | - | - |
| 1778085924 | 11.67° C | 71% | 1019.4 hPa | 0 mm | - | - | - |
| 1778085624 | 11.67° C | 70% | 1019.5 hPa | 0 mm | - | - | - |
| 1778085324 | 11.67° C | 68% | 1019.6 hPa | 0 mm | - | - | - |
| 1778085024 | 11.67° C | 71% | 1019.6 hPa | 0 mm | - | - | - |
| 1778084722 | 11.67° C | 73% | 1019.4 hPa | 0 mm | - | - | - |
| 1778084422 | 11.67° C | 71% | 1019.2 hPa | 0 mm | - | - | - |
| 1778084122 | 11.67° C | 71% | 1019.2 hPa | 0 mm | - | - | - |
| 1778083823 | 12.22° C | 69% | 1019.2 hPa | 0 mm | - | - | - |
| 1778083523 | 11.67° C | 76% | 1019.2 hPa | 0 mm | - | - | - |
| 1778083222 | 11.67° C | 75% | 1019.1 hPa | 0 mm | - | - | - |
| 1778082922 | 11.11° C | 72% | 1019 hPa | 0 mm | - | - | - |
| 1778082623 | 11.11° C | 76% | 1018.9 hPa | 0 mm | - | - | - |
| 1778082321 | 11.11° C | 77% | 1018.9 hPa | 0 mm | - | - | - |
| 1778082022 | 10.56° C | 73% | 1018.9 hPa | 0 mm | - | - | - |
| 1778081721 | 10.56° C | 79% | 1018.8 hPa | 0 mm | - | - | - |
| 1778081422 | 10.56° C | 80% | 1018.9 hPa | 0 mm | - | - | - |
| 1778081122 | 10° C | 81% | 1018.9 hPa | 0 mm | - | - | - |
| 1778080821 | 10° C | 80% | 1018.9 hPa | 0.76 mm | - | - | - |
| 1778080523 | 10° C | 82% | 1018.9 hPa | 0.76 mm | - | - | - |
* Rain latest hour (hover to see other rain measurements)
** Current wind speed in m/s (hover to see current wind gust speed)